User: anonymous   Login
Location: Corralito
(10.2667°N, 66.9500°W)
Time: 12:32:13
(UTC+00:00)
Language:

Cosmos 2123 Rocket - Orbit

View from above orbital plane
View from above orbital plane
View from above satellite
View from above satellite

Ground track
Ground track

The orbit data is extracted from the following two-line orbital elements,

1 21090U 91007B   23271.67497433  .00000112  00000-0  98595-4 0  9991
2 21090  82.9226 329.7653 0022035 100.7436 259.6203 13.76492552639358
Epoch (UTC): 28 September 2023 16:11:57
Eccentricity: 0.0022035
inclination: 82.9226°
perigee height: 960 km
apogee height: 992 km
right ascension of ascending node: 329.7653°
argument of perigee: 100.7436°
revolutions per day: 13.76492552
mean anomaly at epoch: 259.6203°
orbit number at epoch: 63935

The dashed part of the orbit path shows where the satellite is in the earth's shadow,  

DLR